Vienna, OH

7:40 PM EST on January 21, 2017 (GMT -0500)
Youngstown

Weather History for KYNG - January, 2012

Change the Weather History Date:

Monday, January 23, 2012

  Actual Average Record
Temperature  
Mean Temperature 45 °F 26 °F  
Max Temperature 54 °F 33 °F 67 °F (1933)
Min Temperature 35 °F 19 °F -13 °F (1963)
Degree Days  
Heating Degree Days 20 39  
Month to date heating degree days 819 903  
Since 1 July heating degree days 2824 3309  
Cooling Degree Days 0 0  
Month to date cooling degree days 0 0  
Year to date cooling degree days 0 0  
Moisture  
Dew Point 37 °F    
Average Humidity 79    
Maximum Humidity 92    
Minimum Humidity 66    
Precipitation  
Precipitation 0.43 in 0.08 in 1.05 in (1965)
Month to date precipitation 3.15 1.95  
Year to date precipitation 3.15 1.95  
Snow  
Snow 0.00 in 0.50 in - ()
Month to date snowfall 23.1 12.4  
Since 1 July snowfall 33.2 31.8  
Snow Depth 4.00 in    
Sea Level Pressure  
Sea Level Pressure 29.78 in    
Wind  
Wind Speed 17 mph (SSE)    
Max Wind Speed 28 mph    
Max Gust Speed 39 mph    
Visibility 8 miles    
Events Rain    
T = Trace of Precipitation, MM = Missing Value Source: NWS Daily Summary

Daily Weather History Graph

Daily Weather History Graph

Search for Another Location

Airport or City:

Trip Planner

Search our weather history database for the weather conditions in past years. The results will help you decide how hot, cold, wet, or windy it might be!

Date:

Astronomy

Jan. 23, 2012 Rise Set
Actual Time 7:41 AM EST 5:27 PM EST
Civil Twilight 7:12 AM EST 5:57 PM EST
Nautical Twilight 6:38 AM EST 6:30 PM EST
Astronomical Twilight 6:05 AM EST 7:03 PM EST
Moon 7:35 AM EST (1/23) 6:14 PM EST (1/23)
Length of Visible Light 10h 45m
Length of Day
9h 45m
New Moon, 0% of the Moon is Illuminated
Jan 23
New Moon
Jan 30
First Quarter
Feb 7
Full
Feb 14
Last Quarter
Feb 21
New

Hourly Weather History & Observations

Time (EST) Temp. Windchill Dew Point Humidity Pressure Visibility Wind Dir Wind Speed Gust Speed Precip Events Conditions
12:51 AM 36.0 °F 26.7 °F 28.9 °F 76% 30.00 in 10.0 mi SE 15.0 mph 23.0 mph 0.00 in   Overcast
12:59 AM 35.6 °F 25.5 °F 28.4 °F 75% 29.96 in 10.0 mi ESE 17.3 mph - N/A   Overcast
1:51 AM 36.0 °F 26.0 °F 30.0 °F 79% 29.97 in 10.0 mi SE 17.3 mph 25.3 mph N/A   Overcast
2:37 AM 37.4 °F 28.2 °F 30.2 °F 75% 29.92 in 10.0 mi SE 16.1 mph - 0.00 in Rain Light Rain
2:51 AM 37.0 °F 28.1 °F 30.9 °F 79% 29.95 in 10.0 mi SE 15.0 mph 24.2 mph 0.00 in   Overcast
3:26 AM 37.4 °F 28.5 °F 30.2 °F 75% 29.90 in 10.0 mi ESE 15.0 mph 24.2 mph N/A   Overcast
3:51 AM 37.4 °F 27.5 °F 30.2 °F 75% 29.87 in 10.0 mi ESE 18.4 mph 25.3 mph N/A Rain Light Rain
4:04 AM 37.4 °F 27.5 °F 30.2 °F 75% 29.86 in 10.0 mi ESE 18.4 mph - 0.00 in Rain Light Rain
4:51 AM 37.9 °F 27.3 °F 32.0 °F 79% 29.83 in 10.0 mi ESE 21.9 mph 26.5 mph 0.00 in   Overcast
5:39 AM 37.4 °F 27.8 °F 32.0 °F 81% 29.80 in 10.0 mi SE 17.3 mph 26.5 mph N/A   Overcast
5:51 AM 37.9 °F 28.2 °F 32.0 °F 79% 29.82 in 10.0 mi ESE 18.4 mph 26.5 mph N/A   Overcast
6:51 AM 37.4 °F 26.1 °F 35.6 °F 93% 29.76 in 7.0 mi SE 24.2 mph 35.7 mph N/A Rain Light Rain
7:17 AM 37.4 °F 28.9 °F 35.6 °F 93% 29.77 in 10.0 mi SE 13.8 mph 23.0 mph 0.04 in Rain Light Rain
7:28 AM 39.2 °F 32.5 °F 35.6 °F 87% 29.80 in 10.0 mi SSE 10.4 mph 23.0 mph 0.04 in Rain Light Rain
7:40 AM 39.2 °F 30.5 °F 37.4 °F 93% 29.86 in 1.5 mi WSW 16.1 mph - 0.08 in Rain Heavy Rain
7:51 AM 39.2 °F 34.2 °F 37.4 °F 93% 29.84 in 1.5 mi South 6.9 mph - N/A Rain Rain
8:00 AM 39.2 °F 33.0 °F 37.4 °F 93% 29.84 in 5.0 mi South 9.2 mph - 0.01 in Rain Light Rain
8:19 AM 37.4 °F 31.4 °F 37.4 °F 100% 29.84 in 1.5 mi SSE 8.1 mph - 0.02 in Rain Light Rain
8:34 AM 39.2 °F 31.2 °F 37.4 °F 93% 29.82 in 1.5 mi SE 13.8 mph - N/A Rain Light Rain
8:44 AM 39.2 °F 30.8 °F 37.4 °F 93% 29.82 in 1.5 mi SE 15.0 mph 21.9 mph 0.02 in   Overcast
8:51 AM 39.0 °F 31.0 °F 37.0 °F 93% 29.84 in 4.0 mi SE 13.8 mph 23.0 mph 0.02 in   Overcast
9:08 AM 39.2 °F 30.5 °F 37.4 °F 93% 29.80 in 4.0 mi SE 16.1 mph 23.0 mph N/A   Overcast
9:25 AM 39.2 °F 30.2 °F 37.4 °F 93% 29.77 in 1.5 mi ESE 17.3 mph - 0.01 in Rain Light Rain
9:42 AM 39.2 °F 29.0 °F 37.4 °F 93% 29.71 in 3.0 mi SE 21.9 mph 31.1 mph 0.05 in Rain Light Rain
9:51 AM 39.9 °F 30.5 °F 37.9 °F 93% 29.75 in 3.0 mi SE 19.6 mph 31.1 mph 0.05 in Rain Light Rain
10:40 AM 42.8 °F 35.4 °F 39.2 °F 87% 29.71 in 7.0 mi SE 15.0 mph 24.2 mph N/A   Overcast
10:51 AM 43.0 °F 35.7 °F 39.9 °F 89% 29.74 in 7.0 mi SE 15.0 mph - N/A   Overcast
11:51 AM 46.0 °F 39.3 °F 42.1 °F 86% 29.67 in 10.0 mi SE 16.1 mph 21.9 mph 0.01 in   Mostly Cloudy
12:11 PM 48.2 °F - 42.8 °F 82% 29.63 in 10.0 mi SSE 13.8 mph 24.2 mph N/A   Overcast
12:51 PM 50.0 °F - 44.1 °F 80% 29.63 in 10.0 mi SSE 16.1 mph 24.2 mph 0.01 in   Overcast
1:13 PM 48.2 °F - 44.6 °F 87% 29.62 in 10.0 mi SSE 13.8 mph 24.2 mph N/A   Overcast
1:51 PM 48.9 °F - 44.1 °F 83% 29.62 in 10.0 mi SSE 9.2 mph - N/A   Overcast
2:51 PM 48.2 °F - 44.6 °F 87% 29.59 in 10.0 mi SE 5.8 mph - N/A Rain Light Rain
3:31 PM 51.8 °F - 46.4 °F 82% 29.59 in 2.5 mi SSW 11.5 mph - 0.03 in Rain Light Rain
3:44 PM 51.8 °F - 48.2 °F 88% 29.57 in 9.0 mi South 18.4 mph 26.5 mph 0.06 in Rain Light Rain
3:51 PM 52.0 °F - 48.0 °F 86% 29.59 in 9.0 mi South 11.5 mph 26.5 mph 0.06 in Rain Light Rain
4:51 PM 54.0 °F - 46.0 °F 75% 29.60 in 9.0 mi SSW 11.5 mph 19.6 mph 0.01 in Rain Light Rain
5:31 PM 51.8 °F - 46.4 °F 82% 29.62 in 10.0 mi WSW 19.6 mph 26.5 mph 0.01 in   Overcast
5:51 PM 51.1 °F - 44.1 °F 77% 29.65 in 10.0 mi WSW 20.7 mph 32.2 mph 0.01 in   Overcast
6:51 PM 48.9 °F - 37.9 °F 66% 29.69 in 10.0 mi SW 25.3 mph 34.5 mph N/A   Mostly Cloudy
7:51 PM 44.1 °F 36.2 °F 37.0 °F 76% 29.76 in 8.0 mi WSW 18.4 mph 32.2 mph N/A   Overcast
8:51 PM 39.9 °F 30.5 °F 32.0 °F 73% 29.82 in 10.0 mi WSW 19.6 mph 33.4 mph N/A   Overcast
9:29 PM 39.2 °F 29.8 °F 30.2 °F 70% 29.82 in 10.0 mi WSW 18.4 mph 25.3 mph N/A   Overcast
9:51 PM 39.0 °F 29.6 °F 30.0 °F 70% 29.86 in 10.0 mi WSW 18.4 mph 26.5 mph N/A   Overcast
10:05 PM 39.2 °F 28.5 °F 28.4 °F 65% 29.84 in 10.0 mi SW 24.2 mph 32.2 mph N/A   Overcast
10:51 PM 37.9 °F 27.3 °F 28.9 °F 70% 29.88 in 10.0 mi WSW 21.9 mph 34.5 mph N/A   Overcast
11:51 PM 37.0 °F 27.4 °F 28.9 °F 73% 29.90 in 10.0 mi West 17.3 mph 26.5 mph N/A   Overcast